Regional Weather Roundup
Issued by NWS

Home | Current Version | Previous Version | Text Only | Print | Product List | Glossary Off
Versions: 1 2 3 4 5 6 7 8 9 10 11 12 13 14 15 16 17 18 19 20 21 22 23 24 25 26 27 28 29 30 31 32 33 34 35 36 37 38 39 40 41 42 43 44 45 46 47 48 49 50

683
ASUS44 KLIX 291701
RWRLA
LOUISIANA WEATHER ROUNDUP
NATIONAL WEATHER SERVICE NEW ORLEANS LA
1100 AM CST THU JAN 29 2015

NOTE: "FAIR" INDICATES FEW OR NO CLOUDS BELOW 12,000 FEET WITH NO
      SIGNIFICANT WEATHER AND/OR OBSTRUCTIONS TO VISIBILITY.
      SKY/WX - SKY CONDITION AND SIGNIFICANT WEATHER.
      TMP - AIR TEMPERATURE.    DP   - DEWPOINT TEMPERATURE.
      RH  - RELATIVE HUMIDITY.  PRES - PRESSURE.
      HX  - HEAT INDEX.         WCI  - WIND CHILL INDEX.

*  THESE STATIONS ARE NOT NWS OR FAA STATIONS AND ARE NOT UNDER
   NWS QUALITY CONTROL.

LAZ040-048-061>063-065-066-069-291800-
SOUTHEAST LOUISIANA

CITY           SKY/WX    TMP DP  RH WIND       PRES   REMARKS
N.O. AUDUBON     N/A     73  59  61 MISG        N/A
N.O. INTL ARPT MOSUNNY   70  56  61 S9        30.28R
N.O. LAKEFRONT SUNNY     71  53  52 S7        30.28R
N.O. DOWNTOWN* NOT AVBL
SLIDELL        SUNNY     69  52  54 S9        30.28R
BATON ROUGE    MOSUNNY   68  57  68 SW9       30.27S
BOOTHVILLE     SUNNY     68  56  65 S9        30.28R
BELLE CHASSE   PTSUNNY   71  54  54 S8        30.27S
BOGALUSA*        N/A     69  52  53 SW8       30.29S
GALLIANO*      NOT AVBL
NEW ROADS*     NOT AVBL
GONZALES*      NOT AVBL
HAMMOND*       NOT AVBL
HOUMA*         MOSUNNY   72  61  68 S14       30.27R
PORT FOURCHON* SUNNY     70  59  68 S9G16     30.30S

$$

LAZ041-044-053-054-291800-
SOUTHWEST LOUISIANA

CITY           SKY/WX    TMP DP  RH WIND       PRES   REMARKS
LAKE CHARLES   MOSUNNY   69  60  73 W8        30.26F
LAFAYETTE      MOSUNNY   69  61  75 SW8G17    30.27S
PATTERSON      MOSUNNY   72  61  68 SW9       30.29R
SALT POINT       N/A     68  59  73 VRB5      30.26S
NEW IBERIA     CLOUDY    65  61  87 SW6       30.29R FOG
CHENAULT AIRPK MOSUNNY   64  61  88 SW8       30.26F

$$

LAZ027-028-291800-
CENTRAL LOUISIANA

CITY           SKY/WX    TMP DP  RH WIND       PRES   REMARKS
FORT POLK      CLOUDY    60  60  97 SW12G18   30.24S
ALEXANDRIA INT CLOUDY    62  58  86 S8        30.24R
ALEXANDRIA     MOSUNNY   66  56  70 W10       30.24S

$$

LAZ001-002-291800-
NORTHWEST LOUISIANA

CITY           SKY/WX    TMP DP  RH WIND       PRES   REMARKS
SHREVEPORT     PTSUNNY   68  54  60 W12       30.21R
BARKSDALE AFB  SUNNY     66  53  63 W8G20     30.21R
DTN SHREVEPORT SUNNY     66  53  63 W8        30.21R

$$

LAZ014-016-291800-
NORTHEAST LOUISIANA

CITY           SKY/WX    TMP DP  RH WIND       PRES   REMARKS
MONROE         SUNNY     67  52  58 W13       30.21S
TALLULAH       SUNNY     65  53  65 SW10G17   30.21S

$$




USA.gov is the U.S. government's official web portal to all federal, state and local government web resources and services.